Wind_Speed
11 11 9 7 7 7 6 7 6 4 1 1 1 0 2 4 7 9 8 8 9 12 12 11 11 12 13 14 16 18 21 23 25 27 29 31 32 34 34 33 33 33 31
11 10 8 7 6 6 6 7 6 3 2 1 1 2 3 6 9 10 9 9 11 14 14 13 13 14 15 16 17 19 21 23 25 27 28 30 33 34 35 34 32 30 28
10 9 7 7 6 5 4 6 4 2 2 2 3 3 5 8 10 10 10 10 12 15 15 14 15 16 17 18 18 20 22 23 25 27 29 31 33 35 35 33 30 27 26
10 9 7 7 6 5 4 5 3 2 3 4 4 5 7 9 11 12 12 13 15 16 16 16 17 18 19 20 20 21 22 24 25 27 30 32 33 35 34 33 30 25 23
9 8 8 9 7 6 6 6 5 5 5 7 7 7 9 11 12 14 15 16 18 19 19 20 21 22 23 23 22 22 23 25 26 28 31 33 34 35 33 32 30 25 21
9 9 9 9 8 7 9 8 7 7 8 9 9 10 11 12 13 15 17 19 20 21 23 25 27 28 28 26 25 25 25 26 28 29 31 34 36 36 34 31 29 25 20
11 9 10 9 8 8 10 10 9 9 10 11 11 12 13 14 15 16 18 20 22 24 26 29 31 32 31 28 26 26 27 29 30 32 33 35 37 38 36 31 27 24 19
12 11 11 10 10 10 11 11 10 10 10 11 12 12 14 15 16 16 19 21 24 26 27 29 30 30 29 28 27 27 29 30 32 34 34 35 37 38 37 34 28 24 20
13 13 12 11 11 11 11 10 10 9 10 11 12 13 15 16 16 17 19 21 22 23 24 26 26 26 26 26 26 28 29 30 32 34 35 36 37 38 37 35 30 25 22
15 14 14 13 12 12 11 10 10 10 10 11 12 14 15 16 16 17 18 20 20 23 25 26 27 27 26 26 26 27 28 30 32 34 35 36 37 38 36 35 32 27 25
15 15 15 15 15 14 13 13 13 13 13 12 13 15 17 17 18 18 19 19 21 24 26 28 28 28 28 28 27 28 29 30 31 33 35 36 37 38 37 36 34 30 28
16 16 16 16 16 16 15 15 16 17 17 17 18 18 19 20 20 20 21 20 22 25 28 29 29 29 29 29 29 29 30 31 33 35 36 37 38 38 37 36 35 33 31
17 17 17 17 17 17 17 17 18 19 20 21 22 23 23 23 22 22 23 22 23 26 27 27 28 29 29 29 29 30 31 33 34 36 37 37 38 39 39 37 36 35 33
18 18 18 18 18 19 19 19 20 20 21 24 26 27 27 26 25 25 25 24 25 27 28 28 29 30 30 30 30 31 32 34 35 37 38 39 40 40 40 40 38 36 35
19 19 20 21 21 21 22 23 23 23 25 27 30 32 32 30 29 28 28 28 28 30 31 33 33 34 35 34 34 35 35 36 38 39 40 41 41 41 41 41 41 40 39
19 18 20 22 23 24 26 28 29 30 32 34 35 36 36 34 31 31 31 32 32 33 35 37 38 38 39 39 40 40 40 40 40 41 41 42 43 44 43 43 42 42 42
20 20 21 24 27 29 30 30 31 32 33 34 34 35 35 33 32 32 33 34 35 35 36 39 41 42 42 43 44 44 44 44 44 44 44 44 45 46 46 46 45 44 43
21 24 27 29 29 30 30 29 29 29 29 30 32 33 34 33 32 33 35 37 38 38 38 40 43 44 45 45 47 48 48 48 47 47 47 47 47 48 48 49 49 48 46
25 29 32 32 30 29 30 29 28 29 30 31 31 33 35 36 36 37 38 39 41 41 41 43 45 46 47 47 49 50 51 50 49 49 49 49 50 51 51 52 52 51 50
30 33 33 32 30 29 28 28 29 30 31 33 34 36 37 39 40 40 41 43 44 44 44 47 47 48 49 51 52 52 52 51 51 51 52 52 53 53 54 55 55 53 52
32 32 32 31 29 28 28 28 29 31 33 35 37 38 39 41 42 43 44 46 47 47 48 50 52 52 52 53 54 55 55 54 53 55 55 56 55 56 57 58 59 58 56
30 30 29 28 28 28 28 30 32 33 35 38 40 41 42 43 44 45 46 48 49 50 51 53 56 56 55 55 56 57 58 56 55 56 56 57 56 57 59 61 62 62 61
28 28 27 27 28 29 30 31 32 34 36 38 40 41 42 44 45 46 47 49 50 52 53 54 56 58 58 58 59 60 61 61 59 57 56 56 57 59 62 63 62 61 61
26 26 27 28 29 30 31 33 34 35 37 39 41 41 41 42 43 45 47 50 52 54 55 56 58 60 61 62 63 64 64 64 65 64 61 60 61 62 62 64 63 60 59
27 28 29 31 33 34 36 38 40 41 43 45 47 48 49 49 49 51 54 57 59 60 61 62 62 63 64 65 66 66 66 65 63 65 65 64 66 65 63 61 59 58 59
30 32 33 36 38 40 42 44 45 47 48 50 51 53 54 55 56 57 59 61 62 63 64 65 65 65 66 67 67 67 68 67 65 66 68 68 69 65 62 59 57 55 56
Wind_Direction
255 259 261 258 250 244 243 256 263 264 223 126 83 25 328 336 338 339 332 333 338 340 337 332 330 332 332 335 339 344 347 348 347 345 344 343 341 339 339 340 341 342 343
258 257 259 251 241 244 252 262 260 240 222 254 322 309 322 331 339 336 326 328 336 338 332 327 325 326 327 328 331 334 337 339 341 340 338 339 341 341 340 341 340 341 343
264 263 257 243 236 235 260 269 248 240 260 286 283 307 328 334 338 331 321 326 332 333 331 326 319 319 324 327 328 328 330 333 335 336 335 336 340 341 340 339 338 340 343
264 266 252 241 240 242 269 270 253 269 294 289 281 309 325 327 328 325 321 324 325 325 327 325 318 316 318 319 320 323 326 329 330 333 334 335 338 340 339 338 337 337 340
260 259 251 247 248 256 268 270 264 276 292 287 282 297 313 318 320 322 323 321 317 314 315 318 319 318 315 314 313 313 316 321 323 328 333 335 336 336 337 336 335 333 334
263 250 250 255 258 268 271 265 262 269 277 283 285 290 302 311 317 321 320 318 316 314 312 312 314 316 313 310 309 307 308 312 316 322 328 331 332 332 333 334 332 329 329
270 256 253 256 261 273 276 263 256 260 269 281 284 288 300 311 317 318 314 313 315 315 313 312 312 312 310 307 304 303 304 306 309 313 320 324 327 329 332 330 327 324 321
271 261 257 258 263 275 279 265 252 255 267 279 285 290 302 309 311 309 309 314 318 319 319 317 314 312 310 308 304 302 303 304 305 308 313 319 322 325 328 328 323 317 311
272 262 259 257 261 271 277 264 253 259 272 283 291 298 301 300 302 306 311 318 323 330 333 332 327 322 319 314 310 309 308 307 308 310 313 316 317 319 322 325 320 309 300
267 257 252 254 256 262 269 264 261 267 276 286 298 304 302 298 301 306 311 319 327 334 336 336 334 331 327 321 316 314 313 313 314 315 316 316 317 318 319 321 318 305 292
262 253 247 248 253 259 266 268 269 274 280 286 297 304 304 301 302 305 310 317 328 337 340 339 335 330 328 326 323 319 317 318 318 318 319 319 319 319 321 320 319 307 290
255 249 248 253 259 263 268 272 275 279 282 284 290 298 304 304 302 302 306 315 327 335 340 343 342 336 330 326 324 324 323 323 323 322 321 321 320 320 321 320 319 312 295
252 248 251 259 266 269 272 275 277 280 282 284 285 290 299 302 298 296 300 309 319 325 331 336 340 340 337 333 330 328 328 327 327 327 325 324 322 321 319 318 315 312 302
252 250 253 261 269 272 274 275 275 276 279 282 283 286 294 296 292 291 296 302 307 312 317 322 326 329 331 332 332 331 330 330 329 329 328 326 325 323 320 317 313 308 304
251 252 258 265 270 274 276 277 275 274 276 279 282 285 290 291 287 287 291 293 297 300 305 310 315 319 322 324 325 326 327 327 327 328 327 326 324 323 321 318 314 309 302
255 257 263 271 277 279 280 280 278 276 276 277 279 282 285 286 284 283 285 289 292 296 300 305 309 312 314 316 318 318 319 320 321 322 322 321 321 321 319 316 313 309 303
261 269 275 282 287 287 285 282 279 277 277 277 277 279 282 282 280 279 281 284 288 292 296 300 303 306 309 311 312 312 313 315 317 317 316 316 316 316 315 314 311 306 303
272 280 285 289 290 287 285 284 281 280 279 278 276 278 280 279 277 275 276 279 284 290 295 298 300 302 305 308 309 310 310 310 311 312 312 310 310 311 310 311 309 306 301
283 287 291 293 291 288 288 287 286 284 282 279 278 277 278 278 275 272 273 276 281 286 291 294 296 299 301 304 306 307 306 307 308 308 308 307 307 307 307 307 306 303 299
287 289 290 290 290 289 289 288 286 284 282 282 282 281 281 281 279 275 274 275 279 284 287 290 292 295 298 300 302 303 303 304 305 304 304 304 304 304 304 305 304 300 297
286 287 287 287 286 286 286 283 282 283 283 283 284 284 283 282 281 279 276 276 279 283 287 290 292 295 297 299 300 301 301 301 302 302 303 303 303 303 303 304 303 300 296
285 287 287 287 287 287 288 288 288 287 287 286 285 285 284 283 283 282 280 280 281 284 287 290 293 295 297 297 298 299 299 299 300 301 302 302 302 302 304 304 304 301 296
286 287 288 289 290 291 292 293 292 291 290 289 288 289 289 288 288 288 287 286 287 288 290 292 294 295 296 297 297 297 297 298 298 299 298 299 301 303 306 306 306 306 300
284 286 288 290 291 292 292 292 292 293 293 293 292 292 291 290 290 289 288 287 286 287 289 290 291 293 294 295 294 295 296 298 300 300 300 301 301 303 305 305 305 305 302
283 286 288 290 291 291 292 292 292 292 292 291 291 290 290 289 289 288 288 288 288 289 291 292 292 292 293 293 294 295 297 298 299 300 301 302 303 304 305 306 306 303 300
283 286 288 288 289 290 290 291 291 291 290 290 290 290 290 290 289 288 287 287 287 288 289 289 289 290 291 292 293 294 296 297 298 299 300 302 302 305 306 307 306 301 297
Height
5876 5877 5877 5878 5879 5879 5879 5880 5881 5880 5880 5880 5880 5880 5880 5879 5879 5878 5877 5876 5875 5873 5872 5871 5869 5868 5866 5864 5862 5860 5857 5855 5852 5849 5846 5843 5839 5835 5831 5826 5822 5818 5814
5875 5876 5877 5877 5878 5878 5879 5879 5879 5878 5878 5878 5879 5879 5879 5878 5877 5877 5876 5875 5874 5873 5871 5870 5868 5867 5865 5863 5861 5859 5856 5854 5851 5848 5845 5841 5837 5833 5829 5824 5819 5816 5812
5874 5875 5876 5877 5877 5877 5878 5878 5877 5877 5876 5877 5878 5878 5877 5876 5876 5876 5876 5874 5873 5872 5870 5869 5867 5865 5863 5861 5859 5857 5855 5852 5849 5846 5843 5839 5835 5830 5826 5822 5817 5813 5810
5873 5874 5875 5876 5876 5876 5877 5877 5876 5876 5876 5876 5877 5876 5876 5876 5876 5875 5874 5873 5871 5870 5869 5867 5866 5864 5861 5859 5856 5854 5852 5850 5847 5844 5840 5836 5832 5828 5824 5819 5815 5810 5807
5872 5873 5874 5875 5875 5875 5876 5876 5875 5875 5875 5875 5875 5875 5875 5875 5874 5873 5872 5871 5870 5868 5867 5865 5863 5861 5858 5855 5853 5851 5849 5847 5844 5841 5837 5833 5830 5826 5821 5817 5812 5808 5804
5871 5872 5872 5873 5874 5874 5875 5875 5874 5874 5874 5874 5874 5874 5873 5873 5872 5871 5870 5869 5868 5866 5864 5862 5859 5857 5854 5852 5849 5848 5846 5843 5841 5837 5834 5830 5827 5823 5819 5814 5810 5806 5802
5870 5871 5871 5872 5872 5873 5873 5873 5872 5872 5872 5872 5872 5872 5872 5871 5870 5869 5868 5867 5865 5863 5861 5858 5855 5852 5850 5847 5845 5844 5842 5839 5836 5833 5830 5827 5823 5820 5815 5811 5807 5803 5799
5868 5869 5869 5870 5871 5872 5871 5871 5870 5870 5870 5870 5870 5870 5870 5869 5868 5867 5866 5865 5863 5860 5857 5854 5851 5848 5846 5843 5841 5839 5837 5835 5832 5829 5826 5822 5819 5815 5811 5807 5803 5800 5796
5866 5867 5868 5869 5870 5870 5870 5869 5869 5869 5869 5869 5869 5868 5868 5867 5866 5865 5864 5862 5860 5857 5854 5851 5847 5844 5841 5839 5837 5835 5833 5830 5827 5824 5821 5818 5814 5811 5807 5803 5799 5796 5793
5863 5864 5866 5867 5868 5868 5868 5867 5867 5867 5867 5867 5867 5866 5865 5864 5863 5862 5860 5859 5857 5854 5851 5847 5844 5840 5837 5835 5833 5830 5828 5826 5823 5819 5816 5812 5809 5805 5802 5798 5794 5791 5789
5860 5861 5863 5864 5865 5866 5866 5866 5866 5866 5865 5865 5865 5864 5863 5861 5859 5858 5857 5856 5853 5850 5847 5844 5840 5837 5834 5832 5829 5827 5824 5821 5818 5814 5811 5807 5804 5800 5797 5793 5789 5786 5784
5857 5858 5860 5861 5862 5863 5864 5863 5864 5864 5863 5863 5862 5861 5859 5858 5857 5855 5854 5852 5849 5847 5843 5840 5837 5834 5831 5828 5825 5823 5820 5817 5813 5810 5806 5802 5799 5795 5791 5787 5784 5780 5777
5854 5856 5857 5858 5859 5860 5860 5860 5860 5860 5860 5859 5858 5857 5855 5854 5853 5851 5849 5847 5845 5842 5839 5836 5833 5831 5828 5825 5821 5818 5815 5812 5809 5805 5801 5797 5794 5790 5786 5782 5778 5774 5771
5852 5853 5854 5855 5856 5856 5856 5856 5857 5856 5856 5855 5854 5852 5851 5850 5848 5846 5845 5843 5840 5837 5834 5832 5829 5827 5824 5821 5817 5814 5811 5808 5804 5801 5797 5792 5789 5785 5781 5777 5773 5769 5765
5849 5851 5851 5852 5852 5852 5852 5852 5851 5851 5851 5850 5848 5847 5846 5845 5843 5841 5840 5837 5835 5832 5830 5827 5824 5822 5819 5816 5813 5810 5806 5803 5799 5795 5791 5787 5783 5779 5775 5771 5767 5763 5759
5846 5847 5848 5848 5848 5847 5847 5846 5846 5845 5845 5844 5842 5841 5839 5838 5836 5835 5833 5831 5829 5826 5824 5821 5818 5815 5813 5810 5807 5803 5800 5796 5792 5789 5785 5780 5775 5771 5767 5763 5759 5755 5752
5842 5843 5843 5844 5843 5842 5841 5840 5839 5839 5838 5837 5836 5834 5832 5831 5830 5829 5827 5825 5822 5820 5817 5815 5812 5809 5806 5803 5800 5797 5793 5789 5785 5782 5777 5773 5768 5763 5758 5754 5750 5746 5742
5838 5838 5838 5838 5837 5836 5834 5833 5833 5832 5831 5830 5829 5827 5825 5824 5822 5821 5820 5818 5815 5814 5812 5809 5805 5802 5799 5796 5792 5789 5785 5781 5777 5773 5769 5764 5760 5755 5749 5745 5740 5736 5732
5834 5833 5832 5831 5831 5830 5828 5828 5827 5826 5825 5824 5822 5820 5818 5817 5815 5813 5813 5811 5809 5807 5805 5801 5798 5794 5791 5787 5783 5780 5776 5772 5768 5764 5760 5755 5750 5746 5740 5735 5730 5725 5720
5828 5827 5826 5824 5824 5823 5822 5822 5821 5820 5819 5817 5816 5814 5812 5810 5807 5806 5805 5803 5800 5799 5796 5792 5788 5785 5781 5777 5774 5770 5766 5762 5758 5754 5749 5745 5740 5735 5730 5725 5720 5715 5710
5823 5821 5820 5818 5817 5817 5816 5814 5813 5812 5811 5810 5808 5806 5804 5801 5799 5797 5796 5794 5791 5789 5786 5782 5778 5775 5771 5766 5763 5759 5756 5752 5748 5742 5738 5734 5729 5724 5718 5714 5710 5705 5699
5817 5816 5814 5813 5812 5811 5810 5808 5807 5806 5804 5802 5800 5798 5795 5792 5790 5788 5786 5784 5782 5779 5776 5772 5767 5764 5760 5755 5751 5746 5743 5742 5737 5731 5727 5722 5717 5712 5707 5702 5696 5692 5688
5813 5811 5809 5808 5806 5805 5804 5803 5801 5799 5797 5794 5792 5789 5786 5783 5781 5779 5777 5775 5773 5769 5766 5761 5756 5751 5748 5743 5738 5733 5728 5726 5723 5722 5717 5712 5706 5701 5695 5688 5682 5679 5674
5808 5807 5805 5803 5801 5800 5798 5796 5794 5792 5790 5787 5784 5781 5778 5774 5772 5768 5765 5762 5759 5755 5752 5748 5743 5738 5734 5730 5724 5719 5715 5711 5707 5705 5703 5699 5694 5688 5682 5674 5669 5664 5660
5803 5801 5800 5798 5796 5794 5791 5789 5787 5784 5781 5778 5775 5772 5769 5766 5763 5759 5754 5750 5746 5742 5739 5735 5730 5725 5720 5715 5710 5705 5701 5697 5693 5688 5685 5683 5678 5674 5668 5662 5657 5651 5646
5797 5796 5794 5792 5789 5787 5784 5781 5778 5775 5771 5768 5765 5761 5758 5754 5751 5747 5742 5738 5733 5729 5725 5721 5715 5711 5706 5701 5696 5691 5686 5682 5679 5674 5669 5667 5662 5659 5653 5649 5644 5638 5633